[[{"header":{"parameterUnit":"m.s-1","parameterCategory":1,"la1":30.2991,"la2":30.254,"lo1":-89.0895,"lo2":-89.0444,"dy":0.0017,"dx":0.0017,"nx":28,"ny":28,"refTime":"2025-06-07T09:00:00:Z","depth":0,"parameterNumber":2,"parameterNumberName":"U-component_of_WINDS"},"data":[0,0,0,0,0,0,0,0,0,0,0,0,0,0,0,0,0,0,0,0,0,0,0,0,0,0,0,0,0,0,0,0,0,0,0,0,0,0,0,0,0,0,0,0,0,0,0,0,0,0,0,0,0,0,0,0,0,0,5.8062,5.8063,0,5.8132,5.8132,5.8133,5.7989,5.7985,5.798,5.7976,5.8048,5.8054,5.8061,0,0,0,0,0,0,0,0,0,0,0,0,0,5.7806,5.7812,5.8062,5.8063,5.8064,5.8131,5.8132,5.8133,5.799,5.7985,5.7979,5.7974,5.8046,5.8054,5.8061,0,0,0,0,0,0,0,0,0,0,0,0,0,5.7901,5.7813,5.8062,5.8001,5.7996,5.8131,5.8132,5.8134,5.7991,5.7984,5.7977,5.7971,5.8044,5.8053,5.8062,5.8261,0,0,5.8091,5.8095,0,0,0,0,0,0,0,0,5.7896,5.791,5.8009,5.8005,5.8,5.8045,5.8068,5.8176,5.7993,5.7993,5.7976,5.7967,5.8053,5.8061,5.809,5.8264,5.8267,5.8092,5.8098,5.8102,5.8104,0,0,0,0,0,0,0,5.7889,5.7907,5.809,5.8011,5.8005,5.797,5.7975,5.8088,5.8062,5.7993,5.7982,5.7993,5.8049,5.8081,5.809,5.8268,5.8092,5.81,5.8106,5.811,5.8605,5.8612,0,0,0,0,0,0,5.789,5.7902,5.8087,5.8092,5.7929,5.798,5.7986,5.8038,5.806,5.8057,5.7998,5.7986,5.8068,5.8079,5.8092,5.8322,5.8102,5.811,5.8116,5.8597,5.8606,5.8615,0,0,0,0,0,0,5.7885,5.7908,5.8085,5.7994,5.8014,5.7992,5.805,5.8043,5.8074,5.8064,5.8059,5.8036,5.8063,5.8079,5.8219,5.8322,5.8115,5.8123,5.8589,5.86,5.8611,5.8786,0,0,0,0,0,0,5.7879,5.7907,5.7983,5.7997,5.8019,5.8211,5.8057,5.8049,5.809,5.8074,5.8098,5.8095,5.8059,5.8205,5.8228,5.8332,5.8131,5.8579,5.8594,5.8607,5.8771,5.8802,5.8828,0,0,0,0,0,5.787,5.8031,5.7987,5.801,5.8113,5.8217,5.823,5.8184,5.81,5.8174,5.8168,5.8094,5.8309,5.8221,5.8245,5.8353,5.8572,5.859,5.8606,5.8758,5.8796,5.8828,0,0,0,0,0,0,5.803,5.8031,5.7983,5.8153,5.8186,5.8193,5.8286,5.8227,5.8284,5.8267,5.8209,5.8215,5.8366,5.8374,5.8277,5.8545,5.8426,5.8448,5.8533,5.8569,5.8597,5.859,5.8138,0,0,0,0,0,5.8085,5.817,5.8166,5.8317,5.8335,5.8309,5.8352,5.8314,5.8346,5.8359,5.8363,5.8397,5.847,5.8521,5.8589,5.8773,5.8773,5.8859,5.8888,5.8911,5.893,5.9023,5.906,5.867,5.867,5.8669,0,0,5.82,5.8211,5.8268,5.8349,5.837,5.8457,5.8321,5.842,5.8484,5.8374,5.8504,5.8509,5.8543,5.8704,5.8775,5.8716,5.9039,5.8933,5.8952,5.8958,5.9044,5.9081,5.9114,5.8681,5.8679,5.8677,0,0,5.8452,5.8471,5.8596,5.8619,5.8652,5.8632,5.8663,5.8678,5.8676,5.8807,5.8725,5.8801,5.8931,5.8957,5.8987,5.9249,5.9181,5.9273,5.9422,5.9514,5.9544,5.9571,5.966,5.9693,5.9293,5.9293,5.9294,0,5.859,5.8718,5.8668,5.8772,5.8808,5.8713,5.8837,5.8863,5.8917,5.8944,5.8877,5.9036,5.9053,5.9216,5.928,5.931,5.934,5.9268,5.9544,5.957,5.9595,5.9678,5.9713,5.9304,5.9303,5.9301,5.93,0,5.8884,5.8975,5.9072,5.9124,5.9173,5.9287,5.9253,5.9308,5.9266,5.9254,5.9386,5.9403,5.9471,5.9508,5.9469,5.9666,5.9627,5.9554,5.9432,5.9643,5.9721,5.9753,5.9319,5.9315,5.9312,5.9309,0,0,5.9237,5.9259,5.9295,5.9316,5.9345,5.9414,5.9524,5.9589,5.9635,5.9677,5.9765,5.9877,5.9808,5.9842,5.9806,5.9887,6.0087,5.9802,5.9802,5.9851,6.03,6.0351,6.039,6.0045,6.0051,6.0055,6.0295,0,5.9483,5.9669,5.9626,5.981,5.9891,5.9802,5.9896,5.9924,5.9916,5.9983,5.9974,6.0052,5.9958,5.9977,6.0054,6.0047,6.0176,6.0029,6.0123,6.0127,6.0113,6.0431,6.0487,6.0712,6.0326,6.0331,6.0335,0,5.9794,5.9844,6.0036,6.0048,6.0081,6.0167,6.0221,6.0288,6.0317,6.0305,6.0344,6.0291,6.0397,6.0278,6.0423,6.0324,6.0361,6.0363,6.0371,6.0374,6.0241,6.0438,6.0783,6.0815,6.0383,6.0379,6.0376,0,6.0025,6.0142,6.027,6.0292,6.0312,6.0374,6.0385,6.0407,6.0448,6.0497,6.0522,6.0584,6.0617,6.0665,6.063,6.0547,6.0779,6.0658,6.077,6.077,6.0819,6.0815,6.117,6.0851,6.0851,6.085,6.0849,0,6.0301,6.0421,6.0374,6.0453,6.0583,6.0534,6.0664,6.0665,6.0686,6.0762,6.069,6.0763,6.0714,6.0783,6.0757,6.0878,6.0895,6.0887,6.0877,6.089,6.0891,6.091,6.0891,6.0859,6.0857,6.0855,6.0854,0,6.058,6.0555,6.0688,6.0695,6.07,6.0795,6.0801,6.0874,6.086,6.0957,6.0978,6.0956,6.1034,6.1004,6.1087,6.1069,6.1223,6.1196,6.1212,6.1203,6.1315,6.1303,6.169,6.1736,6.1393,6.1396,6.1399,0,6.0755,6.0845,6.0862,6.0907,6.0923,6.0998,6.1039,6.0994,6.1039,6.1078,6.1146,6.1217,6.127,6.1397,6.1389,6.1451,6.1422,6.1553,6.1431,6.144,6.1418,6.1411,6.1418,6.1576,6.158,6.1584,6.1586,0,6.1068,6.105,6.1112,6.1169,6.122,6.1263,6.13,6.1342,6.1298,6.1353,6.143,6.1472,6.1555,6.1625,6.1681,6.1691,6.1631,6.1626,6.1654,6.1665,6.1669,6.1664,6.1274,6.1616,6.1613,6.1611,6.1609,6.1608,6.1296,6.137,6.1392,6.1463,6.1486,6.1522,6.1589,6.1583,6.1647,6.171,6.1681,6.1769,6.1794,6.1862,6.1881,6.1949,6.1897,6.194,6.1949,6.1959,6.1971,6.1663,6.196,6.1959,6.1958,6.1957,6.1956,0,6.16,6.161,6.1676,6.1728,6.1784,6.1723,6.1761,6.181,6.1889,6.1918,6.1971,6.2059,6.2126,6.2124,6.2185,6.224,6.2214,6.2257,6.225,6.2253,6.2016,6.1983,6.2277,6.2277,6.2277,6.2277,6.2277,6.2277,6.1764,6.1884,6.1869,6.2,6.2009,6.2094,6.212,6.2152,6.2174,6.2274,6.233,6.2327,6.2343,6.2405,6.2463,6.246,6.2484,6.2538,6.2524,6.2302,6.227,6.224,6.2208,6.2544,6.2545,6.2754,6.2756,6.2758]},{"header":{"parameterUnit":"m.s-1","parameterCategory":1,"la1":30.2991,"la2":30.254,"lo1":-89.0895,"lo2":-89.0444,"dy":0.0017,"dx":0.0017,"nx":28,"ny":28,"refTime":"2025-06-07T09:00:00:Z","depth":0,"parameterNumber":3,"parameterNumberName":"V-component_of_WINDS"},"data":[0,0,0,0,0,0,0,0,0,0,0,0,0,0,0,0,0,0,0,0,0,0,0,0,0,0,0,0,0,0,0,0,0,0,0,0,0,0,0,0,0,0,0,0,0,0,0,0,0,0,0,0,0,0,0,0,0,0,6.5449,6.5451,0,6.5644,6.5646,6.5648,6.5637,6.5634,6.5631,6.5628,6.5824,6.5831,6.5839,0,0,0,0,0,0,0,0,0,0,0,0,0,6.5061,6.5068,6.5449,6.5451,6.5454,6.5643,6.5646,6.5649,6.5637,6.5634,6.563,6.5627,6.5821,6.583,6.584,0,0,0,0,0,0,0,0,0,0,0,0,0,6.524,6.5071,6.5448,6.5471,6.5475,6.5643,6.5646,6.5649,6.5638,6.5634,6.5629,6.5625,6.5818,6.5829,6.5841,6.5998,0,0,6.5877,6.5882,0,0,0,0,0,0,0,0,6.523,6.5254,6.5465,6.547,6.5474,6.5612,6.5581,6.5766,6.5639,6.5576,6.5628,6.5623,6.5756,6.5773,6.5818,6.6007,6.6015,6.5878,6.5885,6.589,6.5893,0,0,0,0,0,0,0,6.5217,6.5246,6.5526,6.5468,6.5474,6.5469,6.549,6.5616,6.5687,6.5581,6.5581,6.5604,6.5758,6.5807,6.5823,6.6018,6.5877,6.5888,6.5895,6.59,6.6341,6.6345,0,0,0,0,0,0,6.5201,6.5235,6.552,6.5532,6.5339,6.548,6.5503,6.5572,6.5686,6.5699,6.5607,6.5603,6.5789,6.5809,6.583,6.6018,6.589,6.5901,6.5908,6.6336,6.6342,6.6347,0,0,0,0,0,0,6.5192,6.5226,6.5512,6.5384,6.542,6.5491,6.5568,6.5578,6.5627,6.5706,6.5718,6.5645,6.5787,6.5813,6.5955,6.6025,6.5906,6.5917,6.6331,6.6338,6.6344,6.6398,0,0,0,0,0,0,6.5181,6.5223,6.5285,6.5385,6.5426,6.5636,6.5573,6.5585,6.5648,6.5644,6.5744,6.5757,6.5785,6.5938,6.5967,6.6039,6.5926,6.6325,6.6334,6.6342,6.639,6.6406,6.6419,0,0,0,0,0,6.5168,6.5293,6.5289,6.5323,6.5506,6.564,6.5664,6.5695,6.5654,6.5715,6.5765,6.5754,6.6013,6.5953,6.5985,6.6062,6.632,6.6331,6.6341,6.6384,6.6403,6.6419,0,0,0,0,0,0,6.5199,6.5306,6.5303,6.5464,6.5543,6.5638,6.5717,6.5715,6.5807,6.5799,6.5832,6.5855,6.5997,6.6044,6.5975,6.6217,6.6161,6.6178,6.6182,6.6201,6.6215,6.62,6.5936,0,0,0,0,0,6.5224,6.5327,6.5414,6.5548,6.5588,6.5646,6.5706,6.5723,6.5805,6.5838,6.5899,6.5978,6.6077,6.6142,6.6237,6.6397,6.6417,6.6465,6.648,6.6491,6.6506,6.659,6.6611,6.6381,6.6381,6.6381,0,0,6.5278,6.535,6.5412,6.5556,6.5619,6.5722,6.5674,6.5786,6.5861,6.5855,6.5993,6.604,6.613,6.6281,6.635,6.6324,6.6573,6.6505,6.6513,6.6522,6.6603,6.6624,6.6644,6.6389,6.6387,6.6386,0,0,6.5429,6.5495,6.5612,6.5676,6.5772,6.5809,6.5837,6.5932,6.5963,6.6102,6.6099,6.6188,6.6359,6.6422,6.6477,6.6648,6.664,6.6678,6.6754,6.6836,6.6854,6.687,6.6928,6.6949,6.6693,6.6693,6.6693,0,6.5483,6.564,6.5672,6.5784,6.5845,6.5845,6.5962,6.6022,6.6145,6.6186,6.6155,6.6367,6.6428,6.6592,6.6634,6.6679,6.6709,6.6667,6.6849,6.6865,6.6881,6.6937,6.6959,6.6697,6.6696,6.6696,6.6695,0,6.57,6.5808,6.5891,6.6009,6.6081,6.6195,6.6241,6.6309,6.632,6.6359,6.6498,6.6571,6.668,6.672,6.6732,6.6885,6.6866,6.6842,6.6785,6.6906,6.6959,6.6981,6.6702,6.6701,6.67,6.6699,0,0,6.5877,6.601,6.6039,6.6091,6.6197,6.628,6.6392,6.6499,6.6555,6.6639,6.6732,6.6875,6.6852,6.6914,6.6932,6.7004,6.7131,6.6971,6.6973,6.6996,6.7301,6.7317,6.7341,6.7127,6.7131,6.7134,6.7292,0,6.6036,6.6237,6.6267,6.6443,6.6541,6.6541,6.6638,6.6712,6.6751,6.6838,6.6881,6.6981,6.6945,6.6982,6.7053,6.7101,6.7192,6.709,6.7211,6.7215,6.7186,6.737,6.7388,6.7533,6.7314,6.7317,6.732,0,6.6249,6.6338,6.6524,6.6612,6.6655,6.6742,6.6841,6.6925,6.7007,6.703,6.7098,6.7107,6.722,6.716,6.7314,6.7244,6.7295,6.7325,6.7331,6.7342,6.7273,6.7383,6.7581,6.7602,6.7353,6.7351,6.7348,0,6.6355,6.6522,6.6653,6.6698,6.6806,6.6867,6.6914,6.6992,6.7053,6.7139,6.7179,6.7277,6.733,6.7404,6.7437,6.7391,6.7589,6.7532,6.7608,6.7608,6.7649,6.7646,6.7856,6.7686,6.7685,6.7685,6.7684,0,6.6529,6.6641,6.6702,6.6783,6.6908,6.6941,6.7063,6.7109,6.7178,6.7265,6.7271,6.7352,6.7393,6.748,6.7506,6.7628,6.7653,6.7673,6.7678,6.7671,6.7668,6.7704,6.7694,6.7691,6.7689,6.7688,6.7687,0,6.6668,6.6714,6.6857,6.6947,6.6972,6.706,6.7135,6.7212,6.725,6.7361,6.7388,6.7448,6.755,6.7591,6.7716,6.7734,6.7874,6.7872,6.7846,6.7847,6.7921,6.7913,6.816,6.8192,6.8002,6.8004,6.8006,0,6.6775,6.6862,6.6961,6.702,6.7069,6.7165,6.7228,6.7263,6.7327,6.7425,6.7489,6.7592,6.7675,6.7838,6.7891,6.7986,6.7985,6.8065,6.7999,6.7989,6.7983,6.7977,6.7984,6.8077,6.8078,6.808,6.8081,0,6.6959,6.6977,6.7067,6.7165,6.7239,6.7318,6.7394,6.7442,6.7488,6.756,6.7665,6.7729,6.7857,6.7957,6.8054,6.81,6.8098,6.8102,6.8124,6.8117,6.8097,6.8106,6.7877,6.8096,6.8094,6.8093,6.8092,6.8092,6.7084,6.716,6.724,6.734,6.7401,6.7471,6.7547,6.7594,6.7683,6.779,6.7805,6.7916,6.7992,6.8123,6.8173,6.8259,6.8238,6.8271,6.8279,6.8286,6.829,6.8085,6.8277,6.8277,6.8276,6.8276,6.8276,0,6.7265,6.7317,6.7408,6.7515,6.7592,6.7584,6.7668,6.7732,6.7831,6.7903,6.7985,6.8104,6.82,6.826,6.8357,6.8414,6.8415,6.8437,6.8433,6.8443,6.8304,6.8274,6.8435,6.8435,6.8435,6.8435,6.8435,6.8435,6.7369,6.7496,6.7522,6.7678,6.7728,6.7838,6.7886,6.795,6.8007,6.814,6.8221,6.8259,6.8326,6.8427,6.8514,6.8529,6.8563,6.8587,6.86,6.8469,6.8453,6.8437,6.8409,6.8595,6.8595,6.8731,6.8732,6.8733]}]]